www.pogodaiklimat.ru

Погода и климат >> Архив погоды >> Россия >> Ненецкий АО >> Нарьян-Мар


АРХИВ ПОГОДЫ в Нарьян-Маре

Время (UTC), дата Ветер
(напр.,м/с)
 
Видим.   Явления Облачность Т
(С)
Тd
(С)
f
(%)
Тe
(С)
Тes
(С)
Комфортность P
(гПа)
Po
(гПа)
Тmin
(С)
Tmax
(С)
R
(мм)
R24
(мм)
S
(см)
12 12.06 СЗ 6-10
{13}
10 км слаб. ливневой дождь 10/8 500 м
[Cb calv Ac und]
+3.7 +0.6 80 -2 -2 очень
холодно
1010.9 1009.5
15 12.06 СЗ 6-13
{14}
20 км в посл. час ливневой дождь 10/8 700 м
[Cb calv Ac und]
+3.4 -0.4 76 -2 -2 очень
холодно
1011.4 1010.0 +5.4 0.4
18 12.06 СЗ 5-11
{14}
20 км {ливн. осадки} 10/10 480 м
[Sc]
+2.9 -0.5 78 -2 -2 холодно 1011.3 1010.0
21 12.06 СЗ 6-11
{13}
10 км слаб. ливневой дождь 10/10 500 м
[Cb calv]
+2.6 +0.1 84 -3 -3 холодно 1011.0 1009.6
00 13.06 СЗ 8-14
{15}
10 км слаб. ливневой дождь 10/10 270 м
[Cb cap]
+2.3 +2.3 100 -5 -5 холодно 1010.8 1009.4
03 13.06 СЗ 8-15
{16}
10 км слаб. ливневой дождь 10/10 300 м
[Cb cap]
+2.4 +0.2 85 -4 -4 очень
холодно
1010.8 1009.5 +2.1 0.6
06 13.06 С 7-15
{18}
10 км слаб. ливневой дождь 10/10 720 м
[Cb cap]
+3.3 0.0 79 -3 -3 очень
холодно
1011.7 1010.3
09 13.06 СЗ 6-12
{15}
10 км слаб. ливневой дождь 10/10 570 м
[Cb cap]
+3.3 +0.6 82 -2 -2 очень
холодно
1013.1 1011.8
12 13.06 СЗ 8-13
{14}
10 км слаб. ливневой дождь 10/10 400 м
[Cb cap]
+2.8 +0.7 86 -4 -4 очень
холодно
1013.4 1012.0
15 13.06 СЗ 7-12
{16}
10 км слаб. ливневой дождь 10/10 300 м
[Cb cap]
+2.7 +0.1 83 -4 -4 очень
холодно
1013.2 1011.8 +3.7 2
18 13.06 СЗ 6-11
{14}
10 км слаб. ливневой дождь 10/10 480 м
[Cb calv]
+2.3 -0.2 84 -4 -4 очень
холодно
1012.4 1011.0
21 13.06 СЗ 6-11
{12}
10 км слаб. ливневой дождь 10/10 330 м
[Cb cap]
+1.5 -0.4 87 -5 -5 очень
холодно
1011.8 1010.4
00 14.06 СЗ 5
{12}
10 км слаб. ливневой дождь 10/9 360 м
[Cb cap Ac und]
+1.3 +1.3 100 -5 -5 холодно 1011.6 1010.2
03 14.06 СЗ 4
{10}
10 км слаб. ливневой снег 10/8 480 м
[Cb cap Ac und]
+2.0 +2.0 100 -3 -3 очень
холодно
1011.3 1009.9 +1.2 0.4
06 14.06 СЗ 5
{11}
10 км слаб. ливневой дождь 10/9 400 м
[Cb cap Ac und]
+2.3 -0.2 84 -3 -3 очень
холодно
1011.4 1010.1
09 14.06 СЗ 5 20 км {ливн. осадки} 10/10 800 м
[Sc]
+4.8 -0.7 68 0 0 очень
холодно
1010.9 1009.6
12 14.06 СЗ 5 20 км {ливн. осадки} 8/6 1300 м
[Sc Ac trans]
+7.2 -0.1 60 +4 +5 холодно 1009.8 1008.4
15 14.06 З 5-10
{12}
10 км слаб. ливневой дождь 10/10 480 м
[Cb calv]
+4.1 +1.5 83 -1 -1 очень
холодно
1008.3 1007.0 +7.7 0.5
18 14.06 З 5-10
{12}
10 км слаб. ливневой дождь 10/10 420 м
[Cb cap]
+3.3 +0.9 84 -2 -2 очень
холодно
1005.9 1004.6
21 14.06 З 6
{10}
10 км слаб. ливневой дождь 10/10 300 м
[Cb cap]
+3.5 +3.5 100 -2 -2 холодно 1003.8 1002.4
00 15.06 СЗ 5
{10}
10 км слаб. ливневой дождь 10/10 330 м
[Cb cap]
+2.5 +2.5 100 -3 -3 холодно 1002.6 1001.3
03 15.06 СЗ 5
{10}
20 км {ливн. осадки} 10/10 450 м
[Cb calv]
+3.4 +1.0 84 -2 -2 холодно 1002.5 1001.1 +2.3 2
06 15.06 СЗ 4
{11}
10 км слаб. ливневой снег 10/10 420 м
[Cb calv]
+2.6 +1.9 95 -2 -2 очень
холодно
1003.2 1001.8 +2.0
09 15.06 СЗ 5-10
{11}
20 км в посл. час ливневой снег 9/9 800 м
[Cb calv]
+3.3 +0.2 80 -2 -1 очень
холодно
1004.0 1002.7
12 15.06 С 5
{12}
20 км в посл. час ливневой дождь 9/9 700 м
[Cb calv]
+4.3 -1.8 64 -0 0 очень
холодно
1004.7 1003.4
15 15.06 СЗ 4
{10}
20 км {ливн. осадки} 10/10 800 м
[Cb calv]
+4.7 -0.5 69 +1 +1 очень
холодно
1004.6 1003.3 +5.5 1
18 15.06 З 4 10 км слаб. ливневой дождь 10/10 330 м
[Cb cap]
+3.4 +1.6 88 -1 -1 очень
холодно
1002.9 1001.5
21 15.06 З 6 10 км слаб. ливневой дождь 10/10 240 м
[Cb cap]
+3.8 +3.7 99 -2 -2 холодно 1001.3 1000.0
00 16.06 З 5 10 км слаб. ливневой дождь 10/10 270 м
[Cb cap]
+3.5 +3.5 100 -2 -2 холодно 999.8 998.5
03 16.06 З 5
{10}
10 км слаб. ливневой дождь 10/10 300 м
[Cb cap]
+4.4 +4.0 97 -1 -1 холодно 998.4 997.1 +3.1 2
06 16.06 З 4
{10}
10 км слаб. ливневой дождь 10/10 450 м
[Cb cap]
+5.0 +3.4 89 +1 +1 холодно 996.7 995.3
09 16.06 З 6-10
{11}
10 км слаб. ливневой дождь 10/10 500 м
[Cb cap]
+5.6 +2.6 81 +1 +1 очень
холодно
996.7 995.4
12 16.06 З 6-10
{12}
10 км слаб. ливневой дождь 9/9 450 м
[Cb cap]
+4.7 +2.0 83 -1 -0 очень
холодно
997.8 996.5
15 16.06 З 6-10
{13}
10 км слаб. ливневой дождь 10/10 360 м
[Cb cap]
+3.7 +1.6 86 -2 -2 очень
холодно
998.0 996.7 +6.0 3
18 16.06 З 7-11
{11}
10 км слаб. ливневой дождь 10/10 300 м
[Cb cap]
+3.3 +1.9 91 -3 -3 очень
холодно
997.6 996.3
21 16.06 З 7-11
{12}
10 км слаб. ливневой дождь 10/10 300 м
[Cb cap]
+3.0 +1.2 88 -3 -3 очень
холодно
996.8 995.5
00 17.06 З 6-10
{12}
10 км слаб. ливневой дождь 10/10 270 м
[Cb cap]
+3.1 +1.3 88 -3 -3 холодно 996.6 995.3
03 17.06 З 7-12
{12}
20 км в посл. час ливневой дождь 10/10 500 м
[Cb calv]
+3.3 +0.3 81 -3 -3 очень
холодно
996.8 995.5 +2.3 3
06 17.06 СЗ 6-10
{12}
20 км в посл. час ливневой дождь 10/10 630 м
[Cb calv]
+4.4 +0.3 75 -1 -1 очень
холодно
997.6 996.3
09 17.06 СЗ 6-12
{13}
10 км слаб. ливневой дождь 10/10 570 м
[Cb calv]
+4.2 +0.5 77 -1 -1 очень
холодно
998.6 997.2
12 17.06 З 7-12
{13}
20 км в посл. час ливневой дождь 10/10 540 м
[Cb calv]
+3.9 +0.5 78 -2 -2 очень
холодно
999.9 998.6
15 17.06 З 6-10
{13}
20 км {ливн. осадки} 10/10 720 м
[Cb calv]
+4.2 +0.5 77 -1 -1 очень
холодно
1000.2 998.9 +4.8 0.3
18 17.06 СЗ 7-13
{14}
10 км слаб. ливневой дождь 9/9 480 м
[Cb calv]
+3.4 0.0 78 -3 -3 очень
холодно
999.6 998.3
21 17.06 З 7-10
{13}
20 км в посл. час ливневой дождь 10/10 500 м
[Cb calv]
+2.8 -0.3 80 -3 -3 очень
холодно
999.2 997.9
00 18.06 З 7-11
{13}
20 км {ливн. осадки} 9/9 1320 м
[Cb calv]
+2.4 -0.7 80 -4 -4 очень
холодно
999.2 997.9
03 18.06 СЗ 7-12
{12}
10 км слаб. ливневой дождь 9/8 840 м
[Cb calv Ac trans]
+2.7 -0.0 82 -4 -3 очень
холодно
999.8 998.5 +1.1 0.6
06 18.06 СЗ 5-10
{12}
20 км в посл. час ливневой дождь 9/6 1000 м
[Cb calv Ac trans]
+5.1 +0.1 70 +1 +2 очень
холодно
1001.0 999.6
09 18.06 СЗ 6-10
{13}
20 км {ливн. осадки} 9/9 930 м
[Cb calv]
+5.9 -0.6 63 +1 +2 очень
холодно
1002.6 1001.3
12 18.06 СЗ 6-10
{11}
20 км {ливн. осадки} 10/10 800 м
[Sc]
+5.6 -0.2 66 +1 +1 очень
холодно
1004.1 1002.8
15 18.06 СЗ 6
{11}
20 км 10/10 600 м
[Sc]
+4.8 +0.3 73 -0 -0 очень
холодно
1005.0 1003.7 +6.5 0.0
18 18.06 СЗ 5
{10}
20 км 10/10 570 м
[Sc]
+3.8 -0.3 75 -1 -1 очень
холодно
1005.1 1003.8
21 18.06 СЗ 4 20 км в посл. час ливневой дождь 10/10 500 м
[Cb calv]
+3.1 -0.2 79 -1 -1 холодно 1005.2 1003.9
00 19.06 СЗ 4 20 км в посл. час ливневой дождь 10/10 420 м
[Cb calv]
+2.5 +0.2 85 -2 -2 холодно 1005.5 1004.2
03 19.06 СЗ 4 20 км в посл. час ливневой дождь 10/10 330 м
[Cb cap]
+2.9 +0.7 85 -2 -2 очень
холодно
1005.8 1004.4 +2.3 0.0
06 19.06 СЗ 4 20 км в посл. час ливневой дождь 9/9 600 м
[Cb calv]
+4.6 -0.3 70 +1 +1 очень
холодно
1006.1 1004.8
09 19.06 З 5
{11}
20 км в посл. час ливневой дождь 9/9 1200 м
[Cb calv]
+5.3 +0.2 70 +1 +2 очень
холодно
1007.0 1005.7

 

Местоположение метеостанции Нарьян-Мар (Ненецкий АО, Россия): широта 67.63 долгота 53.02 высота над уровнем моря 12 м.

В архиве по умолчанию представлена погода в Нарьян-Маре за последнюю неделю. Архивные данные за месяц целиком и за предыдущие месяцы, начиная с января 2011 года, Вы можете получить, выбрав интересующий диапазон дат из раскрывающегося списка и нажав кнопку "Ввод!".


*Определитесь, кто Вы:
робот инопланетянин человек

Внимание! Время в таблицах - всемирное. Для получения местного времени необходимо прибавить поправку, которая равна 3 ч.

Смотрите также архив погоды в соседних городах и на ближайших метеорологических станциях:

Погода в Коткино (Ненецкий АО, Россия) (105 км)
Погода в Сенгейском Шаре (Ненецкий АО, Россия) (120 км)
Погода на Мысе Константиновском (Ненецкий АО, Россия) (145 км)
Погода в Ходоварихе (Ненецкий АО, Россия) (148 км)
Погода в Окуневом Носу (Коми, Россия) (155 км)
Погода в Индиге (Ненецкий АО, Россия) (184 км)
Погода в Бугрино (Ненецкий АО, Россия) (200 км)
Погода в Мутном Материке (Коми, Россия) (209 км)
Погода в Хорей-Вере (Ненецкий АО, Россия) (214 км)
Погода в Варандее (Ненецкий АО, Россия) (245 км)

Пояснения к столбцам:

Ветер - указаны скорость ветра в м/с - средняя за 10 мин, порывы в срок и между сроками (в фигурных скобках) и направление, откуда дует ветер: С - северный, СВ - северо-восточный, В - восточный, ЮВ - юго-восточный, Ю - южный, ЮЗ - юго-западный, З - западный, СЗ - северо-западный.
Видимость - горизонтальная дальность видимости в метрах или километрах. При видимости от 1 до 10 км при отсутствии осадков обычно наблюдается дымка, при ухудшении видимости до 1 км и менее - туман. В сухую погоду видимость может ухудшаться дымом, пылью или мглою.
Явления - указаны атмосферные явления, наблюдавшиеся в срок или в последний час перед сроком; фигурными скобками обозначены явления, наблюдавшиеся между сроками (за 1-3 часа до срока); квадратными скобками обозначены град или гололедные отложения с указанием их диаметра в мм.
Облачность - указаны через наклонную черту общая и нижняя облачность в баллах и высота нижней границы облаков в метрах; квадратными скобками обозначены формы облаков: Ci - перистые, Cs - перисто-слоистые, Cc - перисто-кучевые, Ac - высококучевые, As - высокослоистые, Sc - слоисто-кучевые, Ns - слоисто-дождевые, Cu - кучевые, Cb - кучево-дождевые. Подробнее классификацию облаков см. в Атласе облаков (PDF).
T - Температура воздуха - температура, измеренная на высоте 2 м над землей.
Td - Температура точки росы - температура, при понижении до которой содержащийся в воздухе водяной пар достигнет насыщения.
f - Относительная влажность воздуха - влажноcть воздуха, измеренная на высоте 2 м над землей.
Te - Эффективная температура - температура, которую ощущает одетый по сезону человек в тени. Характеристика душности погоды. При расчете учитывается влияние влажности воздуха и скорости ветра на теплоощущения человека.
Tes - Эффективная температура на солнце - температура, которую ощущает человек, с поправкой на солнечный нагрев. Характеристика знойности погоды. Зависит от высоты солнца над горизонтом, облачности и скорости ветра. Ночью, в пасмурную погоду, а также при ветре 12 м/с и более поправка равна нулю.
P - Атмосферное давление - приведенное к уровню моря атмосферное давление.
Po - Атмосферное давление - измеренное на уровне метеостанции атмосферное давление.
Tmin - Минимальная температура - минимум температуры воздуха на высоте 2 м над землей.
Tmax - Максимальная температура - максимум температуры воздуха на высоте 2 м над землей.
R - Количество осадков - Количество выпавших осадков за период времени, мм. При наведении курсора мыши на число - период времени, за который выпало указанное количество осадков.
R24 - Количество осадков - Количество выпавших осадков за 24 часа, мм.
S - Снежный покров - Высота снежного покрова, см. При наведении курсора мыши на число - состояние снежного покрова и степень покрытия местности в баллах.